Location: Unspecified
(0.0000°N, 0.0000°E)
Time: 17:34:35
(UTC+00:00)

ARIANE 2 DEB - Pass Details

Date: 12 March 2026
Orbit: 699 x 35696 km, 8.1° (Epoch: 18 April)

Event Time Altitude Azimuth Distance (km) Brightness Sun altitude
Rises 16:46:31 0° 280° (W) 7,464 ? 20.8°
Reaches altitude 10° 16:49:32 10° 282° (WNW) 7,340 ? 20.0°
Maximum altitude 19:29:26 87° 340° (NNW) 30,020 ? -19.9°
Enters shadow 01:26:41 50° 259° (W) 21,432 ? -70.5°
Exits shadow 02:24:56 66° 237° (WSW) 9,305 ? -56.1°
Drops below altitude 10° 02:53:15 10° 102° (ESE) 4,826 ? -49.0°
Sets 02:55:15 0° 99° (E) 5,239 ? -48.5°
